Location: ActonStarParty
(42.4766°N, 71.4538°W)
Time: 18:21:13
(UTC-04:00)

Daily predictions for brighter satellites

Satellite Brightness Start Highest point End
(mag) Time Altitude Azimuth Time Altitude Azimuth Time Altitude Azimuth
H-2A R/B 4.4 19:17:48 10° SSW 19:22:11 26° SE 19:37:41 10° E
Cosmos 2150 Rocket 4.4 19:23:24 10° SSW 19:28:32 71° WNW 19:33:42 10° NNE
FengYun 1-2 T 4.3 19:30:18 10° SSE 19:35:47 63° ENE 19:41:21 10° N
H-2A R/B 3.3 19:32:47 10° SE 19:36:27 41° ENE 19:40:10 10° N
COSMO-SKYMED 1 4.5 19:32:41 10° N 19:36:40 36° WNW 19:40:38 10° SW
Cosmos 1125 Rocket 4.0 19:33:43 10° SSE 19:38:26 36° ESE 19:43:11 10° NE
Resurs 1-3 4.1 19:35:32 10° SE 19:39:36 39° ENE 19:43:43 10° N
Cosmos 2082 Rocket 2.8 19:34:20 10° N 19:39:40 39° ENE 19:44:56 10° SE
Meteor 1-24 Rocket 3.9 19:38:42 10° NNW 19:44:13 78° W 19:49:56 10° S
SeaSat 1 2.4 19:41:49 10° SSE 19:46:45 79° ENE 19:51:42 10° NNW
ALOS 2.4 19:48:04 10° S 19:52:45 81° WSW 19:57:27 10° NNW
Cosmos 1758 3.5 19:49:55 10° SSE 19:53:44 48° E 19:57:36 10° NNE
HJ-1C 3.5 19:51:50 10° S 19:55:13 79° WSW 19:58:40 10° NNW
Cosmos 1934 Rocket 4.3 19:54:28 10° SSW 20:00:34 71° W 20:06:39 10° N
Cosmos 1953 2.4 19:56:58 10° S 20:00:56 54° E 20:04:53 10° NNE
CZ-3B DEB 3.4 19:49:55 10° WSW 20:01:11 62° NW 20:06:17 10° NE
GPS 2-05 Rocket1 4.5 19:58:48 10° SW 20:01:36 22° SSE 20:03:27 15° SE
SL-27 R/B 4.5 19:58:34 10° NW 20:01:48 31° WSW 20:05:01 10° SSW
Cosmos 1271 Rocket 3.8 19:58:41 10° SSE 20:02:03 26° E 20:05:28 10° NE
Helios 1B rocket 3.2 19:58:23 10° NE 20:02:04 30° E 20:05:42 10° SSE
Okean 3 Rocket 3.6 19:58:51 10° N 20:03:17 89° WSW 20:07:41 10° S
Cosmos 1076 Rocket 3.4 20:03:51 10° N 20:08:04 65° E 20:12:17 10° SSE
SAR-Lupe-4 3.9 20:06:52 11° SE 20:10:04 46° ENE 20:13:32 10° N
Cosmos 1939 Rocket 4.1 20:08:20 18° ESE 20:10:13 25° ENE 20:13:37 10° NNE
Lacrosse 4 Rocket 4.3 20:07:52 10° W 20:10:31 17° NW 20:13:11 10° N
Meteor 1-29 3.8 20:09:50 10° NE 20:12:54 29° E 20:15:36 12° SSE
Cosmos 1674 2.9 20:09:40 10° N 20:13:21 47° E 20:16:31 13° SSE
Abrixas 3.3 20:11:28 10° WNW 20:14:10 40° SW 20:15:43 20° SSE
Tiangong 1 3.8 20:14:32 10° SW 20:15:06 10° SW 20:15:40 10° SSW
Cosmos 1818 3.8 20:13:27 10° NW 20:18:54 71° WSW 20:24:16 10° SSE
COSMOS 2487 2.4 20:16:48 10° NNW 20:20:22 76° ENE 20:22:57 18° SSE
Helios 1A 3.0 20:16:30 11° SSE 20:20:25 61° ENE 20:24:35 10° N
Lacrosse 5 rocket 1.7 20:17:04 10° NW 20:20:52 43° NE 20:22:31 26° E
CZ-4B DEB 3.2 20:20:23 30° ESE 20:21:15 37° ENE 20:24:10 10° N
Cosmos 1269 Rocket 4.0 20:17:00 10° NNW 20:22:19 86° ENE 20:27:37 10° SSE
ISS -3.6 20:25:39 10° SW 20:28:47 46° SE 20:29:21 40° ESE
SAR-Lupe-1 3.9 20:26:28 20° SSE 20:28:50 69° ENE 20:32:25 10° N
Cosmos 1766 Rocket 3.5 20:24:38 10° N 20:29:09 80° E 20:33:38 10° S
GP-B 3.0 20:25:50 10° S 20:30:16 74° E 20:34:42 10° N
Cosmos 372 Rocket 3.8 20:26:15 10° SSW 20:31:21 83° ESE 20:36:32 10° NNE
Cosmos 2016 Rocket 4.4 20:26:06 10° SSE 20:31:49 40° E 20:37:29 10° NNE
Cosmos 2344 4.5 20:25:32 10° WSW 20:33:02 54° NW 20:41:46 10° NNE
USA 215 3.6 20:27:23 10° ENE 20:33:25 39° SE 20:39:26 10° SSW
USA 186 1.3 20:33:16 48° SSW 20:33:37 59° WSW 20:35:49 10° NNW
CZ-2D R/B 3.9 20:30:00 10° S 20:33:47 56° W 20:37:38 10° NNW
SS 2 4.5 20:31:26 10° NNW 20:34:21 76° NE 20:35:03 49° SE
Meteor 1-4 Rocket 3.4 20:31:10 10° SSW 20:34:32 49° WNW 20:37:56 10° N
Cosmos-2242 2.8 20:31:42 10° S 20:35:54 73° E 20:40:10 10° NNE
Cosmos 158 Rocket 4.0 20:31:21 10° NNW 20:36:31 86° WSW 20:40:55 15° SSE
Resurs 01 Rocket 2.9 20:33:46 10° S 20:37:55 41° W 20:42:07 10° NNW
Cosmos 1833 Rocket 2.8 20:40:12 10° NNW 20:45:49 73° WSW 20:50:10 17° SSE
Lacrosse 5 3.6 20:43:27 10° W 20:47:56 30° NNW 20:52:24 10° NNE
Cosmos 2100 Rocket 3.9 20:42:47 10° S 20:49:07 83° E 20:55:32 10° N
Cosmos 1356 Rocket 3.8 20:47:18 10° N 20:51:04 41° ENE 20:51:04 41° ENE
Cosmos 2278 Rocket 4.3 20:49:40 10° WSW 20:54:31 28° NW 20:59:24 10° N
SPOT 5 4.1 20:54:21 28° ENE 20:54:36 29° ENE 20:59:06 10° N
Cosmos 1470 3.1 20:51:27 10° SSW 20:55:24 68° W 20:59:23 10° N
Cosmos 1867 4.2 20:50:15 10° SW 20:55:36 56° NW 21:01:00 10° NNE
Cosmos 494 Rocket 4.1 20:52:03 10° N 20:57:05 53° ENE 20:58:06 45° ESE
Cosmos 1733 3.6 20:55:18 10° SSW 20:59:07 64° W 21:03:00 10° N
Tsikada Rocket 4.3 20:53:35 10° N 20:59:31 44° ENE 21:00:51 39° ESE
BREEZE-M DEB (TANK) 3.4 20:56:41 10° SW 21:00:22 70° SSE 21:13:27 10° ENE
Cosmos 1743 Rocket 3.4 20:56:01 10° N 21:00:29 82° E 21:01:43 47° SSE
ATLAS 5 CENTAUR R/B 2.0 20:56:32 10° SW 21:01:13 73° NW 21:06:22 10° NNE
Cosmos 1500 Rocket 3.4 20:57:34 10° N 21:01:52 60° E 21:02:00 60° E
Cosmos 1340 Rocket 3.3 21:01:53 10° NNW 21:05:51 59° W 21:07:16 36° SSW
USA 267 4.2 21:03:30 23° ENE 21:06:41 35° NNE 21:12:29 10° NW
Envisat 3.2 21:05:45 24° S 21:08:50 68° WSW 21:13:55 10° NNW
SJ-11-01 4.5 21:07:56 31° S 21:10:09 69° WSW 21:14:53 10° NNW
Cosmos 1802 Rocket 3.9 21:05:29 10° S 21:11:36 84° W 21:17:50 10° N
Cosmos 1184 Rocket 3.8 21:12:30 10° NNW 21:15:03 46° NNW 21:15:03 46° NNW
H-2A R/B 3.5 21:21:37 25° NE 21:21:37 25° NE 21:24:58 10° N
Cosmos 2058 3.9 21:18:46 10° N 21:21:29 37° NNE 21:21:29 37° NNE
Cosmos 2082 Rocket 3.7 21:18:39 10° NW 21:23:37 32° WSW 21:27:53 13° SSW
ERS-1 Rocket 2.9 21:23:19 67° SSE 21:24:00 90° WSW 21:29:05 10° NNW
CZ-3 Stage 3 3.8 21:01:15 10° W 21:26:46 42° SSW 21:29:16 34° SSE
Meteor 1-11 4.1 21:22:43 10° N 21:28:19 88° E 21:29:11 66° SSE
MetOp-A 4.0 21:28:59 69° ENE 21:29:01 69° ENE 21:34:20 10° N
SL-14 R/B 4.1 21:27:21 10° NNW 21:30:24 49° NW 21:30:24 49° NW
Cosmos 1816 Rocket 4.4 21:25:03 10° N 21:31:12 65° E 21:31:37 63° ESE
ARGOS 3.5 21:32:39 50° NE 21:32:39 50° NE 21:37:15 10° N
Cosmos 2151 3.5 21:29:16 10° N 21:32:36 54° NNW 21:32:36 54° NNW
Meteor 1-16 Rocket 4.4 21:29:39 18° SSW 21:34:09 75° WNW 21:40:07 10° N
Cosmos 1842 Rocket 4.1 21:34:36 52° WSW 21:35:10 56° W 21:39:30 10° N
Cosmos 2233 Rocket 4.1 21:46:49 57° NE 21:46:49 57° NE 21:51:58 10° NNE
YAOGAN 6 4.5 21:47:37 30° NW 21:47:37 30° NW 21:49:55 10° NNW
USA 245 4.3 21:47:09 73° NE 21:47:09 73° NE 21:53:05 10° N
Meteor 2-1 Rocket 4.2 21:51:15 75° N 21:51:15 75° N 21:56:26 10° N
Lacrosse 5 rocket 3.7 21:56:48 10° WNW 21:58:14 17° W 21:58:14 17° W
Cosmos 2251 Rocket 4.4 21:56:10 10° NNW 22:01:10 42° WSW 22:01:24 42° WSW
SPOT 1/Viking Rocket 4.4 22:05:57 45° N 22:05:57 45° N 22:09:33 10° N
CZ-3B DEB 4.0 22:09:16 10° WNW 22:13:30 18° NNW 22:14:42 16° N
Cosmos 2369 Rocket 3.7 22:18:38 27° NNE 22:18:38 27° NNE 22:21:06 10° NNE
USA 215 3.5 22:10:10 10° NE 22:16:38 65° NW 22:23:04 10° WSW
Lacrosse 5 4.4 22:29:17 10° NW 22:32:22 16° N 22:33:46 14° NNE
SPOT 5 4.4 22:33:35 36° WNW 22:33:35 36° WNW 22:37:28 10° NNW
Terra 4.1 22:47:55 20° NNW 22:47:55 20° NNW 22:49:22 10° NNW
USA 267 3.8 22:50:51 55° NW 22:50:51 55° NW 22:55:47 10° NW
H-2A R/B 4.0 23:02:14 27° NW 23:02:14 27° NW 23:04:50 10° NNW
ATLAS 3B R/B 4.5 23:53:25 24° NNE 23:53:25 24° NNE 23:56:01 10° NNE
